Location: Banksville Park
(38.5557°N, 75.1182°W)
Time: 03:59:12
(UTC+00:00)

Cosmos 2360 Rocket - Pass Details

Date: 19 September 2020
Orbit: 835 x 844 km, 71.0° (Epoch: 18 October)

Event Time Altitude Azimuth Distance (km) Brightness Sun altitude
Rises 09:06:35 0° 172° (S) 3,385 5.2 -19.9°
Reaches altitude 10° 09:09:17 10° 162° (SSE) 2,454 4.6 -19.4°
Maximum altitude 09:14:06 30° 103° (ESE) 1,473 4.0 -18.5°
Drops below altitude 10° 09:18:57 10° 44° (NE) 2,467 5.5 -17.6°
Sets 09:21:39 0° 34° (NE) 3,406 6.2 -17.1°
